2023/10/03 00:00:00, 5.6,13.0
2023/10/03 00:10:00, 5.6,13.2
2023/10/03 00:20:00, 5.7,13.4
2023/10/03 00:30:00, 5.6,13.2
2023/10/03 00:40:00, 5.6,13.4
2023/10/03 00:50:00, 5.6,12.8
2023/10/03 01:00:00, 5.7,13.2
2023/10/03 01:10:00, 5.7,12.9
2023/10/03 01:20:00, 5.8,13.0
2023/10/03 01:30:00, 5.8,13.5
2023/10/03 01:40:00, 5.8,12.8
2023/10/03 01:50:00, 5.8,13.0
2023/10/03 02:00:00, 5.9,13.4
2023/10/03 02:10:00, 5.9,13.5
2023/10/03 02:20:00, 6.0,13.6
2023/10/03 02:30:00, 6.1,13.9
2023/10/03 02:40:00, 6.2,14.0
2023/10/03 02:50:00, 6.3,14.0
2023/10/03 03:00:00, 6.3,13.9
2023/10/03 03:10:00, 6.4,13.5
2023/10/03 03:20:00, 6.4,13.3
2023/10/03 03:30:00, 6.4,13.1
2023/10/03 03:40:00, 6.4,13.2
2023/10/03 03:50:00, 6.4,13.1
2023/10/03 04:00:00, 6.4,13.1
2023/10/03 04:10:00, 6.4,13.2
2023/10/03 04:20:00, 6.3,13.2
2023/10/03 04:30:00, 6.3,12.9
2023/10/03 04:40:00, 6.1,13.0
2023/10/03 04:50:00, 6.2,12.9
2023/10/03 05:00:00, 6.2,12.8
2023/10/03 05:10:00, 6.2,12.5
2023/10/03 05:20:00, 6.2,12.5
2023/10/03 05:30:00, 6.1,12.6
2023/10/03 05:40:00, 6.2,13.1
2023/10/03 05:50:00, 6.2,12.5
2023/10/03 06:00:00, 6.2,12.3
2023/10/03 06:10:00, 6.2,12.7
2023/10/03 06:20:00, 6.3,13.1
2023/10/03 06:30:00, 6.3,13.1
2023/10/03 06:40:00, 6.6,13.8
2023/10/03 06:50:00, 6.7,14.5
2023/10/03 07:00:00, 6.9,15.6
2023/10/03 07:10:00, 7.0,15.7
2023/10/03 07:20:00, 7.1,16.7
2023/10/03 07:30:00, 7.2,17.8
2023/10/03 07:40:00, 6.9,19.3
2023/10/03 07:50:00, 6.7,20.0
2023/10/03 08:00:00, 6.6,21.0
2023/10/03 08:10:00, 6.6,21.4
2023/10/03 08:20:00, 7.0,21.9
2023/10/03 08:30:00, 7.1,22.7
2023/10/03 08:40:00, 7.2,23.1
2023/10/03 08:50:00, 7.3,22.3
2023/10/03 09:00:00, 7.3,23.1
2023/10/03 09:10:00, 7.3,25.4
2023/10/03 09:20:00, 7.2,25.1
2023/10/03 09:30:00, 7.0,25.3
2023/10/03 09:40:00, 6.9,24.0
2023/10/03 09:50:00, 6.7,23.3
2023/10/03 10:00:00, 6.6,23.8
2023/10/03 10:10:00, 6.4,24.0
2023/10/03 10:20:00, 6.3,23.7
2023/10/03 10:30:00, 6.3,23.8
2023/10/03 10:40:00, 6.1,23.9
2023/10/03 10:50:00, 6.1,23.4
2023/10/03 11:00:00, 6.2,24.0
2023/10/03 11:10:00, 5.9,23.4
2023/10/03 11:20:00, 6.3,23.5
2023/10/03 11:30:00, 6.4,22.9
2023/10/03 11:40:00, 6.3,22.5
2023/10/03 11:50:00, 6.1,22.7
2023/10/03 12:00:00, 6.2,23.2
2023/10/03 12:10:00, 6.2,22.5
2023/10/03 12:20:00, 6.4,22.8
2023/10/03 12:30:00, 6.6,22.4
2023/10/03 12:40:00, 6.4,21.9
2023/10/03 12:50:00, 6.2,21.9
2023/10/03 13:00:00, 6.0,22.0
2023/10/03 13:10:00, 6.1,21.9
2023/10/03 13:20:00, 6.3,21.7
2023/10/03 13:30:00, 6.4,21.3
2023/10/03 13:40:00, 6.5,22.0
2023/10/03 13:50:00, 6.3,23.8
2023/10/03 14:00:00, 6.3,24.0
2023/10/03 14:10:00, 6.2,23.0
2023/10/03 14:20:00, 6.1,22.4
2023/10/03 14:30:00, 6.1,22.2
2023/10/03 14:40:00, 6.2,21.9
2023/10/03 14:50:00, 6.3,21.3
2023/10/03 15:00:00, 6.2,20.8
2023/10/03 15:10:00, 6.0,20.7
2023/10/03 15:20:00, 5.7,20.4
2023/10/03 15:30:00, 5.6,20.3
2023/10/03 15:40:00, 5.7,20.4
2023/10/03 15:50:00, 5.8,20.2
2023/10/03 16:00:00, 5.8,20.2
2023/10/03 16:10:00, 6.0,20.0
2023/10/03 16:20:00, 5.9,19.9
2023/10/03 16:30:00, 5.8,19.8
2023/10/03 16:40:00, 5.4,19.9
2023/10/03 16:50:00, 5.3,19.5
2023/10/03 17:00:00, 5.2,19.4
2023/10/03 17:10:00, 5.3,19.1
2023/10/03 17:20:00, 5.3,18.7
2023/10/03 17:30:00, 5.4,18.5
2023/10/03 17:40:00, 5.4,18.4
2023/10/03 17:50:00, 5.4,17.7
2023/10/03 18:00:00, 5.4,17.6
2023/10/03 18:10:00, 5.3,17.6
2023/10/03 18:20:00, 5.3,17.3
2023/10/03 18:30:00, 5.3,17.2
2023/10/03 18:40:00, 4.8,17.1
2023/10/03 18:50:00, 4.0,17.3
2023/10/03 19:00:00, 2.1,16.9
2023/10/03 19:10:00, 0.7,17.1
2023/10/03 19:20:00, 0.6,16.8
2023/10/03 19:30:00, 0.7,16.8
2023/10/03 19:40:00, 0.5,16.8
2023/10/03 19:50:00, 0.5,16.8
2023/10/03 20:00:00, 0.4,16.7
2023/10/03 20:10:00, 0.4,16.8
2023/10/03 20:20:00, 0.4,16.7
2023/10/03 20:30:00, 0.4,16.1
2023/10/03 20:40:00, 0.3,16.3
2023/10/03 20:50:00, 0.3,16.3
2023/10/03 21:00:00, 0.4,16.3
2023/10/03 21:10:00, 0.4,16.0
2023/10/03 21:20:00, 0.3,16.1
2023/10/03 21:30:00, 0.3,15.8
2023/10/03 21:40:00, 0.4,16.0
2023/10/03 21:50:00, 0.9,16.0
2023/10/03 22:00:00, 4.4,15.8
2023/10/03 22:10:00, 5.3,15.8
2023/10/03 22:20:00, 5.4,16.0
2023/10/03 22:30:00, 5.6,15.9
2023/10/03 22:40:00, 5.6,15.9
2023/10/03 22:50:00, 5.7,15.7
2023/10/03 23:00:00, 5.7,15.7
2023/10/03 23:10:00, 5.6,15.9
2023/10/03 23:20:00, 5.8,15.8
2023/10/03 23:30:00, 5.7,15.7
2023/10/03 23:40:00, 5.7,15.8
2023/10/03 23:50:00, 5.9,15.8
